Wind_Gust
12 19 24 30 21 14 8 11 11 12 10 7 6 6 10 10 12 7 5 7 7 9 14 13 13 11 7 17 27 25 24 20 23 21 19 17 19 20 19 18 18 16 15 12 15 15 14 14 13 13 13 13 11 10 9 8 5 5 8 8 6 4 5 7 8 9 8 3 5 4 4 7 6 7 6 8 7 8 9 8 8 7 8 6 6 6
13 16 23 10 9 10 10 10 10 10 10 11 7 6 12 5 14 10 9 8 8 14 10 14 18 17 13 10 18 22 25 23 21 21 22 25 21 22 22 20 19 17 14 15 16 17 15 16 16 16 15 13 13 9 9 8 7 6 7 9 7 7 7 7 5 7 10 6 8 6 7 7 6 6 7 10 8 11 9 7 7 6 6 6 6 7
24 30 12 9 8 9 8 11 11 13 10 10 11 7 4 14 7 9 6 6 10 11 8 18 21 17 16 15 16 20 23 21 22 22 25 29 26 21 21 20 20 18 19 17 16 16 16 16 16 16 15 14 12 11 11 10 12 12 12 10 9 11 10 10 8 6 4 2 3 6 4 6 6 5 7 8 8 5 6 6 6 6 5 5 6 7
15 19 10 10 9 10 10 11 11 12 11 10 5 7 18 9 8 10 9 8 8 20 12 20 23 15 16 18 19 12 19 22 22 23 22 20 22 22 19 17 22 19 19 17 17 17 15 15 17 17 16 14 13 13 13 12 12 12 13 11 12 12 11 12 11 9 8 8 7 4 5 6 4 5 6 5 6 6 4 7 6 6 6 6 7 6
11 4 12 11 12 14 13 11 14 15 19 11 10 9 15 9 9 10 10 7 13 12 28 23 21 12 10 22 23 19 21 24 20 21 20 19 20 20 19 18 19 18 17 18 18 16 17 17 17 17 13 13 15 15 14 12 12 13 12 11 11 12 11 10 11 11 9 12 12 11 8 8 8 8 12 13 14 13 8 8 7 9 6 7 7 5
13 10 16 15 13 15 16 15 21 17 15 17 9 15 19 10 6 4 5 3 9 10 15 25 15 8 9 15 24 22 26 22 19 21 18 18 18 19 20 17 18 16 12 17 16 15 16 17 17 18 14 16 15 18 12 10 13 13 11 11 11 11 12 11 10 10 11 12 12 14 14 14 11 11 14 14 11 12 12 11 7 9 8 7 6 6
13 8 20 21 17 14 16 17 11 15 19 13 20 16 20 12 5 3 8 7 9 23 20 10 23 15 8 18 17 22 21 23 21 18 17 18 17 17 16 16 18 18 16 16 16 14 18 15 20 17 16 15 16 14 8 12 14 12 11 10 10 11 10 10 11 11 11 13 12 11 10 9 10 9 9 8 9 9 9 7 10 8 7 4 5 6
20 16 17 18 19 19 17 22 19 19 15 25 8 15 14 8 8 11 8 13 13 8 7 4 19 25 17 20 21 15 21 24 22 17 16 16 17 16 14 17 17 17 15 19 17 14 18 17 16 18 17 15 14 12 9 14 12 12 12 11 12 12 12 10 10 12 12 11 9 10 10 10 10 10 10 10 11 10 9 11 11 8 8 6 6 5
18 18 19 21 19 22 27 19 8 15 26 17 7 15 12 14 13 14 15 11 10 11 13 8 10 23 18 16 16 17 20 18 20 18 17 16 16 17 17 19 18 16 15 18 18 14 17 17 14 15 20 13 13 13 10 11 12 11 14 13 12 13 12 11 12 12 12 11 10 11 10 10 10 9 9 9 10 12 13 12 13 13 12 12 9 7
23 17 19 18 21 28 13 10 16 17 20 13 10 8 8 7 8 12 12 13 8 9 16 15 21 24 13 12 19 18 16 18 18 18 17 17 17 18 18 18 17 15 15 18 19 15 15 16 15 14 16 16 13 11 8 9 12 13 14 15 14 13 12 11 12 12 12 12 11 13 12 11 11 11 10 10 13 12 11 12 13 12 13 13 13 13
14 11 14 25 29 20 12 15 20 18 16 5 10 10 5 5 9 8 10 12 8 17 22 17 15 18 22 20 23 25 27 28 20 17 18 19 19 17 16 18 17 17 17 18 18 16 15 14 14 15 15 14 13 10 9 10 11 12 14 14 15 12 12 12 12 11 12 12 13 13 11 12 12 11 11 14 15 15 14 14 13 13 12 12 12 12
9 19 23 21 11 17 16 20 15 17 15 11 16 14 6 10 8 6 7 6 18 22 12 13 20 16 26 18 18 11 11 20 23 25 23 21 20 20 16 16 17 17 17 18 18 17 14 15 15 14 14 15 12 10 9 9 9 11 12 14 15 13 12 11 10 11 12 11 12 11 12 12 11 11 12 13 12 12 12 12 13 12 12 13 11 11
17 18 16 10 13 19 21 15 15 12 15 18 13 11 18 15 16 19 11 17 20 22 9 14 16 12 17 7 8 17 15 19 16 15 24 24 22 20 19 17 15 16 16 16 16 16 12 13 13 12 13 12 12 11 7 10 9 10 12 14 15 11 9 9 9 9 9 11 12 12 12 11 12 13 12 11 12 12 12 12 12 14 14 15 17 17
18 11 10 18 12 22 19 27 19 18 20 16 22 16 19 19 19 19 12 13 10 12 8 12 11 16 7 7 8 14 14 18 17 18 20 20 21 21 19 16 16 14 14 14 15 14 12 11 11 9 12 12 10 8 8 8 9 9 12 12 13 8 7 7 9 9 11 11 11 11 11 10 10 10 10 10 11 11 10 10 10 11 11 12 11 12
17 24 30 22 28 19 25 25 20 11 12 20 10 20 16 17 25 21 17 23 18 14 8 10 23 18 14 8 9 16 16 20 20 19 16 16 16 17 15 16 16 15 12 13 14 14 13 13 11 12 11 9 8 7 8 8 9 11 10 11 10 9 8 8 8 9 10 11 10 10 10 10 8 9 9 9 9 10 10 9 10 11 12 12 12 12
25 27 13 15 6 17 21 18 18 13 10 12 14 14 13 29 16 8 16 14 13 12 8 12 12 7 8 5 11 17 19 20 20 20 18 17 15 16 16 16 14 13 13 11 12 13 12 11 10 12 10 9 8 8 9 10 10 11 10 9 8 8 7 7 7 7 8 8 8 8 9 10 9 9 9 9 10 10 10 12 14 15 14 15 15 14
14 28 5 12 12 13 19 16 19 20 30 18 19 29 27 13 15 10 4 3 7 14 9 8 13 10 9 8 11 19 21 18 19 19 20 18 17 16 16 15 13 13 13 12 11 11 10 8 10 10 9 10 9 10 10 10 9 10 10 10 9 9 7 8 7 7 6 9 10 11 11 11 11 11 9 10 10 11 11 12 13 13 14 15 17 17
20 16 8 12 18 19 10 19 15 23 17 19 28 20 8 7 13 23 19 7 8 19 14 7 14 15 15 16 10 17 20 18 19 18 19 18 17 17 16 13 14 14 13 12 10 8 9 11 14 13 11 11 12 10 9 9 7 8 8 8 8 8 10 8 8 9 10 11 11 12 13 12 11 10 11 12 12 12 14 14 14 14 16 15 16 18
8 8 17 12 12 17 7 13 12 16 17 22 21 13 28 16 19 11 18 14 11 13 13 8 11 11 13 14 20 20 23 22 22 19 20 20 18 17 16 15 13 12 13 13 12 12 11 12 13 16 12 11 10 9 9 9 9 8 7 6 8 9 9 8 9 9 12 11 11 11 11 12 13 12 11 11 12 13 15 15 15 15 15 15 15 17
8 13 11 8 18 13 12 16 22 21 7 4 12 21 9 13 13 13 22 13 19 9 11 9 13 17 18 19 22 23 24 23 24 22 20 19 17 17 17 16 15 12 12 14 13 13 14 12 13 15 13 12 12 12 10 9 9 10 7 8 9 12 13 14 14 12 13 11 12 13 13 13 12 13 12 12 13 15 16 17 17 17 17 17 16 16
8 7 9 13 6 16 26 26 23 20 20 12 17 16 15 17 8 14 8 14 14 22 15 17 16 17 11 18 24 25 26 26 26 22 21 18 18 17 17 17 14 12 12 13 14 14 15 15 14 14 12 11 11 10 10 11 11 9 11 12 13 14 13 13 10 11 9 11 12 13 13 13 12 12 13 14 14 15 17 16 17 17 15 15 16 16
12 8 18 9 12 21 16 14 10 16 18 18 20 18 15 14 13 15 17 8 13 19 19 18 20 12 11 6 19 23 21 21 19 20 19 20 18 16 15 14 14 14 10 12 13 13 15 16 16 14 13 11 13 14 13 11 13 14 13 13 14 14 11 10 11 10 9 9 11 11 13 13 12 12 13 14 14 14 14 13 14 14 14 14 14 15
14 9 10 10 11 15 12 6 11 20 15 16 23 17 13 11 16 17 18 12 11 8 11 9 16 10 6 3 12 18 19 19 20 20 21 19 18 16 15 13 11 11 13 14 14 14 15 14 13 13 13 13 13 13 12 12 13 14 14 15 14 15 11 9 9 9 11 12 11 10 11 12 12 12 11 12 12 13 13 12 12 14 16 17 16 16
10 16 8 8 8 10 8 10 7 13 15 6 6 8 15 16 15 18 17 15 16 8 8 6 10 9 4 6 18 19 18 17 18 20 22 19 17 17 16 14 15 16 15 15 15 15 16 13 11 12 14 16 14 14 13 12 13 14 14 13 14 13 11 11 10 11 11 11 11 9 10 11 11 12 12 13 13 13 14 14 12 12 13 14 15 18
27 11 13 9 10 8 11 11 9 6 11 16 14 11 9 10 8 6 11 5 17 15 15 20 17 11 8 15 22 22 21 21 21 20 26 22 16 17 16 15 16 17 18 16 16 15 15 15 15 14 14 14 13 12 13 14 13 13 13 12 13 11 9 9 9 11 10 10 10 10 9 7 8 10 12 13 13 12 12 14 14 14 14 13 15 16
16 8 14 12 16 16 21 21 21 14 19 12 6 9 9 13 11 10 10 10 14 7 7 16 13 6 12 19 23 24 23 22 21 20 19 26 22 20 16 18 17 16 17 17 16 18 18 15 14 14 12 13 12 13 12 13 13 13 13 12 9 11 11 10 9 8 9 8 9 9 8 7 8 9 10 10 11 12 12 13 13 14 14 14 15 15
19 10 9 14 15 15 15 10 8 9 8 15 8 10 8 6 11 11 12 12 20 10 10 7 23 20 21 23 25 25 26 26 24 22 22 21 20 19 18 18 17 17 18 18 18 18 17 17 14 11 10 12 12 11 12 12 13 14 13 12 10 10 10 9 10 8 9 9 9 11 11 11 12 10 8 9 10 11 12 13 14 16 17 16 14 15
12 15 8 12 6 11 10 6 2 6 10 7 9 10 8 11 11 12 15 18 12 22 10 7 27 35 23 20 23 25 25 25 23 23 23 22 21 21 19 19 17 19 17 17 18 19 19 15 12 11 11 12 13 13 14 13 13 13 13 12 9 9 9 9 9 9 9 9 12 13 13 12 11 12 10 7 8 10 11 12 14 15 17 16 16 17
18 17 10 11 7 8 5 6 8 10 6 5 5 5 10 12 11 14 12 10 18 17 21 19 22 33 30 31 30 28 28 28 26 25 23 23 22 21 23 23 22 20 19 17 16 17 18 16 13 12 12 13 14 15 14 14 15 13 12 10 9 9 9 8 10 10 10 10 12 13 13 11 10 11 11 10 9 11 11 11 12 15 15 15 15 18
21 8 8 13 10 13 15 12 14 19 8 15 15 13 9 9 12 12 7 6 8 7 20 34 20 15 21 23 23 24 23 26 23 21 21 21 23 23 22 21 21 20 20 18 17 16 16 15 14 13 14 14 15 14 14 14 13 12 11 9 9 10 9 11 12 11 12 13 13 13 13 13 12 12 12 12 12 11 10 9 11 14 14 15 14 15
20 13 13 10 13 9 13 16 14 17 17 14 13 14 14 12 17 9 12 15 28 22 24 24 25 18 6 14 19 19 21 23 24 23 22 22 24 25 23 20 19 19 18 18 17 16 16 16 15 16 15 14 14 14 13 12 10 10 10 9 9 10 9 11 12 12 12 12 12 13 12 13 13 13 14 13 13 13 13 11 11 12 13 13 14 15
14 9 6 14 14 10 7 12 13 18 20 18 11 16 15 11 15 6 18 9 16 20 24 23 22 17 14 19 20 20 23 25 27 25 23 23 23 24 24 22 21 19 19 18 18 17 18 17 18 18 16 13 13 13 12 11 9 10 10 8 9 10 9 11 12 12 12 11 11 12 13 13 12 13 14 14 15 15 14 13 11 11 11 12 12 13
15 20 14 14 16 10 6 8 12 14 14 11 8 10 9 4 4 7 10 9 17 37 29 27 25 25 31 30 30 24 24 23 26 27 25 24 24 23 23 22 21 20 20 20 19 18 18 17 17 18 18 15 14 13 10 10 11 11 9 9 8 10 10 10 10 10 11 11 11 12 12 11 13 13 14 14 14 13 14 14 13 12 12 13 11 9
10 21 13 8 23 10 8 7 9 11 9 16 8 7 7 5 4 16 12 13 13 13 16 15 27 26 27 30 33 33 33 33 29 22 27 34 30 21 19 19 18 19 18 18 19 19 18 18 18 17 16 14 12 11 8 10 12 9 8 9 8 9 8 8 7 8 9 10 11 11 11 13 13 14 14 13 13 13 13 13 13 12 11 12 12 13
13 16 8 9 22 15 5 7 17 13 17 7 11 11 8 15 15 23 19 14 8 16 24 30 27 29 28 25 25 22 18 17 13 21 17 14 21 27 27 22 20 19 20 19 18 18 17 17 16 14 14 12 12 9 11 10 9 9 10 9 9 7 7 6 8 9 9 10 11 11 11 12 12 14 13 13 13 13 13 13 13 13 12 12 12 13
19 19 15 12 11 10 9 11 24 20 7 7 9 6 13 18 13 24 18 14 10 7 21 29 27 26 25 25 22 20 22 19 19 14 13 14 17 23 24 22 19 19 19 18 20 18 18 17 17 16 13 11 11 10 11 10 8 11 8 7 8 6 7 8 10 10 10 12 11 10 9 10 12 13 13 13 13 14 14 14 13 14 13 13 12 12
18 15 17 13 6 17 11 8 9 6 6 3 6 9 16 15 18 12 18 7 6 5 19 26 25 25 25 22 23 24 23 24 21 13 7 17 18 17 20 19 19 18 17 14 16 17 16 15 14 13 12 11 12 11 10 8 9 9 9 9 7 7 7 8 9 9 9 10 9 9 8 9 11 12 11 11 13 14 13 13 13 13 12 12 12 12
7 16 12 19 10 10 15 12 10 8 18 18 14 7 9 5 9 8 15 6 4 7 10 26 28 28 27 26 26 26 25 30 19 12 10 17 19 20 20 19 17 17 17 15 11 13 12 11 11 11 14 12 11 10 9 8 10 10 9 8 7 8 7 7 7 7 8 9 8 8 8 8 10 11 10 10 12 11 11 10 9 11 10 11 11 13
16 17 10 16 17 9 8 17 19 20 24 13 21 15 10 8 13 8 12 11 11 11 14 22 26 26 32 34 31 30 32 32 25 18 17 20 22 23 23 20 18 17 16 14 13 13 13 13 14 12 12 11 11 7 8 9 10 10 8 7 7 7 7 6 6 7 8 8 7 7 8 8 9 9 9 10 9 9 9 9 9 7 8 9 9 10
15 10 10 15 11 11 13 12 12 19 16 6 13 9 11 10 5 7 11 21 23 20 19 23 29 30 25 27 30 32 37 37 33 26 21 22 23 22 24 22 19 18 15 13 10 12 12 12 13 13 13 12 11 7 9 9 10 8 8 6 6 8 7 7 6 5 7 8 8 7 8 7 9 8 9 9 8 9 8 7 8 11 9 9 9 10
10 7 11 14 11 9 10 7 7 13 13 5 10 10 12 8 11 13 24 14 25 27 24 24 25 25 27 28 27 32 7 11 25 28 22 21 20 17 18 21 20 16 15 12 10 11 14 15 18 18 15 13 11 9 8 10 10 8 7 7 7 7 6 5 5 6 6 7 8 9 8 7 7 10 8 7 7 6 7 8 8 9 10 10 11 10
4 7 4 7 10 13 9 12 13 9 12 9 6 15 13 16 17 21 15 9 30 27 24 26 27 25 25 27 16 9 19 30 27 22 21 21 22 19 19 19 18 14 11 11 12 13 14 15 15 14 12 11 13 10 9 11 11 7 7 7 7 6 5 5 6 6 7 8 8 8 8 8 7 7 7 6 7 9 9 7 7 7 8 9 9 11
17 17 10 11 11 8 7 9 6 10 9 13 16 8 6 16 15 11 12 12 23 28 29 23 24 21 23 16 14 21 27 29 28 25 21 21 23 24 21 18 17 16 15 13 12 13 17 17 17 14 11 9 9 9 9 11 9 7 7 8 7 6 5 6 7 7 7 7 7 7 7 7 7 6 6 6 6 6 7 7 8 9 9 9 10 11
6 16 11 10 14 16 12 20 21 12 7 12 25 24 20 11 12 16 23 21 15 24 25 24 21 21 16 20 23 24 27 28 23 24 22 21 22 21 19 17 16 16 14 14 15 13 16 17 14 13 9 10 10 10 9 12 10 8 8 8 5 4 6 7 7 7 8 7 6 6 6 6 6 5 5 5 6 6 7 8 7 7 9 8 9 10
8 10 14 17 9 14 18 13 7 6 6 6 6 5 5 6 15 15 20 31 30 21 18 22 24 18 18 22 24 27 27 27 27 24 26 24 22 22 20 19 18 18 17 16 14 15 16 18 16 14 11 11 10 10 9 9 11 7 8 5 2 6 8 7 7 8 8 7 6 6 4 6 6 5 5 5 5 6 7 7 7 10 9 9 10 10
5 5 5 15 8 6 9 4 3 6 8 12 10 9 17 13 8 14 21 22 15 24 25 27 21 21 22 24 30 23 25 23 26 22 21 21 20 18 17 17 16 16 16 14 12 15 16 16 15 15 13 8 10 10 8 7 10 8 6 4 5 6 8 9 9 7 6 6 6 5 6 7 5 5 5 5 5 4 3 3 6 8 9 9 9 8
4 3 5 15 8 8 11 6 7 6 6 12 16 11 11 10 14 16 17 18 21 20 21 19 22 22 23 25 27 25 25 24 24 23 20 21 20 19 19 18 17 16 17 16 13 14 16 15 16 16 13 10 6 8 6 6 4 6 6 6 6 7 8 8 8 6 5 7 6 4 6 6 4 5 5 4 5 4 4 3 5 5 6 7 9 10
5 6 16 6 7 7 9 4 4 7 7 6 14 19 16 15 14 12 17 18 20 18 19 22 22 22 22 24 26 28 25 23 26 25 24 23 23 23 21 21 20 18 14 14 12 15 14 16 14 14 12 11 5 5 6 6 6 6 8 7 9 10 11 10 8 9 7 6 6 5 5 5 2 2 2 4 4 6 9 6 3 6 6 6 7 8
8 6 11 7 13 11 10 5 10 13 13 8 7 8 13 17 20 19 21 22 21 23 22 19 20 22 22 25 25 29 27 22 24 26 25 24 22 21 20 20 19 16 14 13 12 15 16 13 14 12 11 8 5 7 7 7 6 6 10 8 8 11 12 10 7 9 7 5 5 4 3 4 3 2 2 3 5 5 7 7 9 7 9 4 6 3
12 8 11 18 18 17 19 21 22 26 14 7 7 13 15 14 21 24 22 22 23 24 25 25 22 19 20 23 25 28 30 25 22 23 24 23 23 22 20 20 18 17 14 12 13 13 13 12 13 11 11 8 8 9 9 8 5 4 6 7 8 12 13 9 11 9 7 6 5 2 4 5 4 3 3 3 5 8 11 6 8 7 5 9 4 8
9 13 18 20 22 21 9 15 3 12 16 10 15 14 18 18 22 25 24 24 22 21 22 26 25 23 22 21 21 24 25 28 23 20 21 20 20 20 20 20 20 17 14 14 16 13 14 12 12 13 12 10 8 10 10 8 7 7 5 6 7 12 11 10 10 9 7 7 5 2 2 4 4 6 5 5 5 6 6 12 12 7 11 11 11 10
Wind_Speed
4 8 11 15 11 8 4 7 7 6 6 3 2 2 2 3 4 4 3 3 1 3 1 4 6 4 1 3 10 15 14 3 4 12 2 9 11 11 10 10 10 10 9 7 10 10 9 9 7 7 6 6 6 5 5 5 3 3 2 2 1 2 1 0 2 2 1 0 2 2 1 3 2 1 1 3 4 4 4 3 3 3 3 2 2 2
7 8 12 4 4 6 7 7 6 5 3 3 3 3 2 2 4 3 1 3 2 1 2 5 11 7 2 4 5 13 14 14 7 6 9 10 11 10 11 10 10 8 7 10 10 11 9 8 8 7 6 6 8 5 5 5 5 4 4 5 4 4 4 4 1 0 2 1 2 2 3 2 2 2 3 4 3 4 3 3 3 3 3 2 2 1
9 13 4 4 5 6 5 8 7 8 5 3 4 2 1 5 3 6 3 3 0 5 2 2 12 6 4 6 8 13 13 11 13 14 15 16 16 12 11 11 9 11 12 11 11 11 9 10 9 8 7 7 7 8 7 6 8 7 7 6 5 5 5 5 4 3 0 1 1 1 2 1 2 2 2 3 2 1 2 3 3 3 2 2 2 2
7 7 5 7 6 7 3 6 6 5 4 5 3 3 6 3 4 2 2 3 5 2 6 6 12 7 6 5 6 4 9 8 11 14 12 11 13 12 10 9 11 13 13 10 11 11 9 9 9 8 7 7 8 8 8 7 8 6 6 6 7 6 6 5 5 3 2 1 1 0 0 1 0 1 2 2 2 3 3 3 1 2 2 2 3 2
4 1 8 7 6 7 5 5 7 6 6 1 5 4 4 3 3 4 2 1 3 7 10 12 8 2 5 9 7 4 6 6 4 7 9 10 9 10 9 10 10 10 10 10 12 10 9 11 10 8 6 7 8 8 7 7 6 5 7 6 6 6 5 5 6 6 4 6 6 5 4 5 5 4 7 7 8 8 5 4 5 5 2 2 3 3
6 4 5 9 7 6 6 6 9 8 5 3 4 9 6 4 4 0 1 1 3 1 6 7 4 2 4 7 9 8 5 8 4 5 10 9 7 7 9 11 9 7 7 10 10 9 9 11 10 10 9 8 7 9 7 6 6 7 7 6 5 5 6 6 6 6 6 7 7 7 7 7 5 6 7 7 6 7 7 6 4 5 5 3 3 3
5 2 6 10 8 7 7 6 5 9 7 4 7 9 5 5 4 3 0 3 1 3 8 3 7 2 1 9 7 8 9 10 9 4 10 12 8 5 8 10 8 10 10 10 8 8 10 9 11 10 9 7 9 8 5 5 7 7 7 6 5 5 5 5 6 6 6 8 7 7 6 5 6 5 5 4 5 5 5 4 6 5 4 3 2 2
6 8 6 7 9 9 7 9 6 10 8 5 2 6 7 4 4 2 2 2 5 2 4 1 1 6 3 7 11 7 10 12 12 11 11 7 7 6 9 9 9 8 9 9 8 9 10 9 10 11 7 7 7 6 5 6 7 8 6 7 6 5 6 6 5 7 7 6 5 6 6 6 6 5 4 6 6 6 5 6 7 5 5 4 3 3
10 7 9 8 8 9 11 5 5 9 8 3 3 10 8 8 6 6 5 5 3 2 6 3 5 3 5 5 2 7 8 7 11 9 10 6 2 6 10 11 11 9 8 10 10 8 10 9 9 9 9 7 7 7 6 5 5 6 4 8 6 7 6 6 7 7 7 6 5 6 6 6 5 5 5 4 5 6 7 7 8 7 7 7 6 4
1 10 10 8 7 11 4 5 9 11 6 2 7 4 4 2 2 5 5 5 3 2 7 5 6 3 2 0 6 3 5 3 2 5 10 12 11 10 11 12 10 9 8 10 12 8 9 9 9 8 8 9 7 6 5 3 6 6 4 9 9 7 5 6 8 7 8 8 6 7 7 7 6 6 5 4 6 7 6 7 8 7 7 7 7 8
3 5 9 7 9 4 5 5 7 10 5 3 6 4 1 1 0 0 1 2 2 4 9 7 7 6 2 6 8 10 8 12 9 5 6 8 10 10 10 12 10 9 8 10 11 7 8 8 8 7 8 9 6 5 6 5 5 3 7 9 10 8 7 8 8 7 7 7 6 6 6 7 7 7 7 7 9 8 8 8 7 7 6 6 6 6
4 2 5 3 6 4 6 4 3 7 5 5 3 4 1 3 3 1 1 2 3 7 6 7 11 7 7 5 7 1 3 13 13 12 13 12 13 9 7 9 11 9 10 9 11 8 7 9 8 6 7 7 5 6 6 5 5 5 7 8 10 9 7 7 6 7 7 6 6 7 8 8 7 7 6 7 7 7 7 7 7 6 5 7 5 6
8 6 1 2 7 11 6 6 3 5 4 5 6 7 8 2 2 4 1 4 7 7 3 2 10 1 7 0 1 9 6 12 10 8 11 13 13 11 9 9 9 9 10 8 9 8 5 7 7 7 5 4 6 7 5 6 5 5 7 9 10 7 5 6 5 6 6 7 7 7 7 6 5 6 6 6 6 6 6 6 6 7 7 7 8 9
6 4 4 5 3 7 10 12 5 6 7 9 8 7 8 5 5 6 2 0 3 4 2 1 5 5 2 1 4 8 8 8 11 9 7 8 12 10 9 8 8 8 8 8 7 7 6 6 4 3 4 4 7 6 5 5 4 5 7 8 9 5 4 4 5 5 6 6 5 6 6 5 5 5 5 5 5 5 5 5 6 6 6 6 6 7
7 9 12 7 5 6 8 9 9 4 6 7 3 8 7 5 4 4 3 7 7 5 2 3 5 3 5 1 4 4 10 11 10 10 9 8 8 9 8 7 8 9 7 7 7 7 7 5 4 5 5 4 5 5 5 4 5 7 6 7 7 6 5 5 5 5 5 5 5 5 5 5 4 5 5 5 5 5 5 5 6 6 6 7 7 7
15 4 6 8 4 9 9 5 7 7 5 4 5 6 4 12 6 2 5 6 4 3 2 2 1 2 2 3 2 8 11 12 12 11 11 10 9 9 9 7 7 7 7 6 7 6 5 5 5 5 6 5 5 5 6 6 6 7 6 6 5 4 4 5 5 5 5 5 5 5 6 6 6 5 6 6 6 6 6 7 8 8 8 8 8 8
3 8 1 3 5 5 9 7 6 9 7 5 8 11 12 6 2 3 2 1 4 6 1 1 1 2 1 1 3 11 13 11 12 10 11 11 10 9 8 7 7 7 6 7 6 6 6 5 4 5 5 6 6 6 6 5 5 6 6 6 5 4 4 5 4 4 4 6 6 7 7 7 7 7 6 6 7 7 7 7 7 7 7 8 9 9
9 2 3 4 10 7 4 10 7 10 7 6 9 7 3 3 2 3 4 1 1 6 2 1 2 5 5 3 4 9 13 13 13 12 11 12 11 10 9 8 8 7 6 6 5 4 4 4 6 7 7 6 6 5 6 6 4 5 5 5 5 5 6 5 6 6 7 7 7 8 9 8 7 6 7 7 7 7 8 8 7 7 8 8 7 8
3 1 6 6 7 9 3 4 4 7 10 10 7 7 9 3 9 2 2 2 2 1 2 2 5 3 6 3 10 13 14 15 15 13 12 13 11 11 10 9 8 7 7 6 6 6 6 7 7 10 8 6 6 6 6 5 5 5 5 4 5 6 6 5 5 6 7 7 6 6 7 8 8 7 7 6 7 7 8 8 8 7 7 7 7 8
1 2 2 2 7 5 4 6 8 8 2 2 7 9 3 5 4 3 5 4 7 3 3 3 7 4 6 4 13 15 15 15 17 16 13 11 10 10 10 9 9 8 7 7 7 7 7 7 8 10 9 7 6 6 5 6 6 6 5 5 6 7 8 9 9 7 8 7 7 7 8 8 7 7 7 6 7 7 7 7 7 7 7 8 7 7
1 1 1 3 2 6 7 6 11 9 9 4 7 6 2 1 1 6 1 2 5 7 5 5 3 4 5 8 12 13 15 14 16 14 12 11 11 11 11 10 9 8 7 7 8 8 9 9 9 9 8 7 6 6 7 7 7 6 7 8 8 9 9 8 6 7 6 6 7 8 8 7 7 8 7 7 7 7 6 6 7 7 7 7 8 7
1 1 5 2 3 9 7 3 5 9 11 9 8 7 8 7 4 7 7 2 3 7 5 5 6 2 5 2 10 11 10 12 12 13 11 13 12 10 9 10 9 8 6 7 8 8 8 8 8 9 7 6 8 9 9 7 8 9 8 8 8 8 6 6 7 6 5 5 6 7 7 7 6 7 7 7 6 7 7 6 6 6 7 8 7 7
4 2 1 2 4 6 6 1 4 13 9 9 12 7 7 4 6 5 5 3 4 1 4 4 3 2 1 1 7 9 9 11 12 12 12 12 11 10 9 7 6 7 9 9 9 8 8 7 7 8 8 9 9 8 8 7 8 8 8 8 7 8 6 5 5 5 5 5 6 6 6 6 7 7 7 7 6 7 7 7 7 7 7 8 8 8
5 1 1 3 4 6 4 4 1 5 8 2 1 3 7 7 7 8 5 6 6 2 3 1 1 1 2 4 9 10 10 10 10 13 14 11 10 10 10 8 10 11 9 9 9 8 7 7 7 8 9 10 9 9 8 7 7 7 7 7 7 7 6 5 5 5 5 5 5 5 5 6 5 6 6 7 6 7 7 7 6 7 7 7 8 9
3 2 4 1 1 1 2 3 2 1 0 4 4 3 4 5 5 3 6 1 6 8 8 8 5 3 4 8 11 12 13 12 13 13 16 13 10 10 10 9 10 11 11 10 10 9 9 9 9 8 9 9 8 8 7 7 7 7 6 6 6 5 4 5 4 5 5 5 5 5 5 4 5 6 6 7 7 8 8 8 8 7 7 7 8 9
4 3 4 2 4 5 5 6 5 6 9 2 0 4 4 8 7 5 3 2 4 2 4 4 3 3 6 11 14 15 14 13 13 13 12 15 13 11 10 11 11 10 10 11 10 11 11 9 8 8 8 8 8 8 7 7 6 6 6 6 4 5 5 5 4 4 5 5 5 5 5 4 4 5 5 6 6 7 7 7 8 8 8 8 9 8
3 2 4 6 6 6 7 3 3 4 2 3 2 6 3 3 5 6 5 5 7 3 5 2 8 10 14 16 17 16 16 17 15 14 14 13 12 12 12 11 10 10 10 11 11 10 10 10 9 7 7 7 8 7 7 7 6 6 6 6 5 4 4 4 4 5 5 6 6 6 6 6 5 3 4 5 5 5 6 7 7 8 8 8 8 8
3 4 4 5 1 4 5 3 1 2 5 3 5 6 5 6 5 7 5 5 6 10 4 2 9 18 14 13 14 15 16 15 14 14 13 12 13 12 11 12 13 11 9 9 10 12 12 10 8 8 7 8 8 7 7 6 6 6 6 6 5 5 4 4 5 6 6 5 6 6 6 6 5 5 4 4 4 5 5 5 6 7 7 7 8 8
6 5 4 3 2 2 2 2 3 2 3 2 2 3 6 5 6 7 6 4 10 6 9 11 13 15 16 20 19 18 17 16 15 14 13 13 13 12 13 14 13 13 12 9 10 11 11 11 8 8 8 8 8 8 7 7 6 5 6 5 5 4 4 4 5 6 5 6 6 6 6 6 6 6 7 6 5 4 4 5 4 5 6 6 7 6
6 2 4 3 3 6 8 7 6 3 4 4 6 4 2 3 7 7 4 4 5 1 7 18 13 6 9 13 14 14 14 16 14 13 13 14 15 15 14 14 13 13 13 11 11 10 10 10 9 9 9 8 8 8 7 6 6 6 6 5 4 5 4 5 6 5 5 5 5 5 6 6 6 6 7 7 7 6 5 4 4 4 5 6 6 6
5 3 5 3 4 4 5 4 8 6 1 6 5 8 9 5 7 3 4 5 11 11 8 13 12 8 1 8 10 11 12 13 14 15 15 14 16 16 15 13 12 12 12 11 11 11 11 10 10 10 10 8 7 6 6 5 5 5 5 4 4 4 4 5 6 5 5 5 5 5 6 6 6 6 7 6 6 6 6 7 6 6 5 4 5 6
4 1 3 2 5 3 4 5 5 6 5 10 5 10 10 8 4 0 4 3 9 11 13 12 10 5 5 12 11 12 14 16 18 16 15 14 15 16 15 14 13 13 13 12 11 11 11 11 12 12 11 9 7 5 5 5 4 5 5 4 4 4 5 5 5 5 5 5 6 5 6 5 6 6 6 6 6 6 6 6 7 7 6 6 6 6
4 6 3 4 7 1 1 2 4 8 2 2 3 3 4 1 2 1 2 3 5 22 14 12 13 12 17 17 18 15 16 15 16 16 15 16 16 15 15 15 13 13 13 13 12 12 12 11 11 12 12 10 9 7 4 5 5 5 4 5 4 5 6 5 5 5 5 5 5 5 5 5 6 6 6 6 6 6 6 7 7 7 7 8 7 5
5 11 4 1 7 3 1 3 5 5 1 4 0 1 4 2 1 1 1 3 8 4 5 2 8 15 17 18 21 21 21 19 17 14 17 19 15 13 13 12 12 12 12 11 12 12 12 11 11 11 10 10 8 7 4 4 6 5 4 5 5 5 4 5 4 4 4 5 5 5 4 5 5 6 6 6 6 6 6 6 7 6 6 6 7 8
6 7 4 1 7 5 1 2 5 4 7 2 3 4 4 4 8 7 6 6 5 2 7 13 16 19 18 15 16 13 11 11 9 14 11 9 14 16 17 15 13 13 13 12 12 12 11 11 11 9 9 8 8 6 6 5 4 4 5 5 5 4 5 4 4 4 4 4 4 4 5 5 5 5 5 5 5 5 6 6 6 7 6 6 6 7
9 9 5 4 3 3 2 2 5 6 2 3 4 1 5 9 8 9 5 5 6 1 9 11 13 14 14 15 14 12 12 11 11 7 7 8 10 14 15 13 13 12 12 11 13 12 12 11 11 11 9 6 7 6 6 5 4 6 5 5 5 4 4 4 4 4 4 4 4 4 4 4 5 5 4 4 5 5 6 6 6 6 6 5 6 5
10 7 7 4 1 4 3 2 0 2 3 1 0 3 6 6 9 6 6 3 2 2 7 14 15 14 14 13 14 14 13 13 11 6 4 11 11 10 12 13 13 12 11 10 11 11 11 10 9 8 7 7 7 7 6 5 6 6 5 5 4 4 4 4 4 4 4 4 4 4 4 4 4 4 4 4 5 5 5 5 6 6 5 6 6 6
2 8 3 8 1 5 5 4 2 2 2 6 8 3 4 3 5 4 7 1 2 4 4 15 17 17 17 15 15 15 14 14 10 6 6 11 12 14 13 12 11 11 11 10 7 8 8 8 7 7 9 8 7 7 5 5 6 6 5 4 4 4 4 4 4 4 4 4 4 3 4 3 4 4 4 4 5 4 4 4 4 4 4 4 5 7
8 9 4 7 6 4 2 5 4 6 8 7 9 8 7 5 6 4 2 3 4 6 7 14 15 16 20 21 18 17 15 15 13 9 9 13 14 14 15 13 12 11 11 9 9 9 9 8 9 8 8 8 7 5 5 6 6 6 5 4 4 4 4 4 4 4 4 4 3 3 3 3 4 4 4 4 4 4 4 4 3 3 3 4 5 5
8 4 4 6 4 2 6 4 3 3 3 1 4 4 7 7 4 3 0 7 11 12 12 15 19 18 16 16 19 18 19 17 16 12 12 14 15 14 15 14 13 12 10 9 7 8 8 8 8 8 8 8 7 5 6 6 6 5 4 4 4 5 4 4 4 4 4 3 3 2 2 2 3 3 4 3 4 4 4 3 3 5 5 5 5 6
3 3 5 7 5 4 6 0 2 4 4 2 4 5 6 4 6 4 8 3 11 15 15 14 16 16 16 17 15 15 2 5 10 16 14 13 13 11 12 13 13 11 10 8 7 8 9 9 10 10 9 7 6 5 5 7 7 5 4 4 5 5 4 4 4 4 4 4 3 3 2 2 3 3 2 2 2 1 3 3 4 4 5 6 6 6
1 2 1 4 4 6 4 5 4 3 5 3 1 9 6 7 5 9 6 1 13 14 14 15 16 15 16 16 9 3 7 18 17 13 14 14 14 13 12 13 12 9 7 8 8 8 9 9 9 8 6 5 6 6 6 7 6 5 4 4 5 5 4 3 4 4 4 4 3 2 2 2 1 1 2 2 3 4 4 3 3 4 4 5 5 5
5 4 2 4 2 3 2 3 2 1 1 7 10 3 3 3 5 5 2 2 13 14 17 14 13 12 13 8 7 12 17 19 18 15 13 13 15 15 13 12 11 11 10 9 8 9 11 10 10 9 7 5 5 5 6 8 6 5 5 5 5 4 4 4 4 4 4 4 3 2 2 2 2 2 3 2 2 3 4 3 4 4 4 4 4 5
1 3 1 2 4 5 3 3 5 4 2 7 13 9 6 3 3 6 8 9 5 10 12 13 10 12 9 11 14 15 18 18 15 15 14 14 15 14 12 11 10 10 9 9 10 9 11 11 9 8 6 5 5 5 6 8 6 5 5 5 4 3 4 4 4 4 4 3 3 3 2 1 1 2 2 2 2 3 3 4 4 3 5 4 5 6
3 2 5 5 2 3 5 4 2 2 3 3 1 1 2 2 5 7 8 14 13 7 8 11 14 11 11 13 15 17 16 17 17 16 17 15 14 14 13 12 12 12 11 11 9 10 11 11 10 9 7 6 6 5 5 6 7 5 5 3 1 4 5 5 4 4 4 4 3 3 2 1 1 2 2 2 2 3 3 4 4 5 5 5 6 6
2 1 1 6 1 1 0 2 2 2 2 2 4 2 3 4 2 4 10 10 7 13 13 14 13 13 13 15 17 13 15 14 17 14 14 14 13 12 11 11 11 11 10 9 8 10 10 10 10 10 9 5 6 6 5 4 6 5 4 3 4 4 6 6 5 4 4 2 2 2 1 2 1 1 1 2 1 1 0 1 3 4 5 5 6 5
1 1 1 3 1 3 1 3 3 1 1 2 6 5 5 3 3 3 6 9 10 9 10 11 13 13 14 14 17 16 16 15 15 14 13 12 12 12 11 11 11 10 11 10 9 9 10 10 10 10 9 7 5 5 4 4 2 4 4 4 4 3 4 5 5 4 3 3 2 1 1 2 1 0 1 2 3 2 2 2 3 3 4 3 4 6
1 2 5 1 3 1 1 0 1 2 2 1 1 6 5 5 6 4 4 6 9 8 10 13 14 14 13 13 16 18 16 15 17 15 14 13 14 13 13 13 13 11 9 9 8 10 9 10 10 9 8 7 4 4 4 4 4 4 4 4 5 5 5 5 4 5 5 4 3 2 2 1 1 1 1 2 2 4 6 4 2 4 4 4 4 4
1 2 2 3 3 2 1 1 2 4 5 4 3 3 3 7 9 9 9 11 12 14 13 11 11 13 13 15 15 18 18 14 15 17 16 14 13 13 12 12 12 10 9 9 8 10 10 9 9 8 7 5 4 4 4 5 4 4 6 5 5 6 7 5 4 4 3 2 3 3 1 1 1 1 1 2 3 3 2 3 5 4 5 2 3 1
2 2 2 5 5 3 7 8 9 7 3 2 1 3 5 6 10 11 11 12 13 15 14 15 12 11 13 15 16 17 19 15 14 15 16 14 14 14 13 13 11 11 9 8 8 9 9 8 9 7 7 5 4 5 5 4 3 3 4 5 5 7 7 5 4 4 2 2 2 1 2 3 3 2 2 2 3 5 6 4 5 5 2 5 3 4
2 4 5 6 7 7 3 6 2 3 4 3 6 5 6 7 11 13 13 13 12 13 14 16 15 13 14 13 13 16 16 17 15 13 14 12 12 12 12 13 12 10 9 9 10 9 9 7 7 8 7 6 5 5 5 5 4 4 4 4 5 8 7 6 5 3 2 2 1 0 1 2 3 2 2 2 2 3 2 6 6 1 6 8 8 7
Wind_Direction
129 182 190 203 203 192 158 168 163 190 154 152 133 127 178 190 284 282 257 260 79 89 359 116 61 43 315 192 129 139 154 314 106 121 2 130 131 117 119 122 117 111 112 108 100 98 101 103 106 105 98 96 89 86 88 88 83 90 114 98 30 314 296 125 119 101 105 18 334 344 316 257 253 265 237 244 251 256 258 264 255 259 254 242 249 242
140 197 223 195 152 157 163 155 170 191 184 171 162 155 243 170 244 249 292 340 24 122 329 69 75 41 7 106 112 134 136 154 167 137 144 127 113 115 120 122 120 122 120 110 105 103 98 100 105 102 98 95 91 79 79 76 72 58 52 52 29 12 11 5 353 231 140 189 197 193 235 223 236 223 225 255 236 237 253 258 270 273 271 260 240 238
199 213 179 163 171 144 144 158 175 182 193 188 187 182 201 259 238 286 300 318 90 85 347 55 83 70 60 119 150 149 149 151 150 150 146 133 130 132 132 128 127 120 110 104 110 103 104 100 92 90 86 83 83 75 68 70 71 63 58 49 46 31 22 11 8 35 5 246 250 229 269 218 275 239 229 228 227 187 204 225 244 257 262 252 253 229
208 236 185 166 134 137 132 164 171 190 189 179 153 155 211 233 142 289 302 15 8 126 154 108 95 89 90 64 86 108 136 134 133 130 122 127 127 127 129 130 125 113 107 114 112 112 109 101 93 81 75 78 79 72 67 63 69 68 58 49 44 35 26 14 4 14 8 66 124 189 207 302 270 323 336 349 354 13 24 354 322 309 302 282 273 272
195 238 162 157 153 155 163 174 170 175 219 183 173 164 209 153 190 153 217 48 48 37 114 91 69 69 129 138 128 87 65 54 41 54 67 87 93 106 113 113 103 103 117 115 109 107 105 96 86 82 73 74 77 76 71 67 66 68 67 51 50 44 31 21 10 10 17 34 25 15 19 26 15 9 18 19 5 0 355 358 7 333 325 324 323 334
249 272 146 152 176 174 156 182 197 157 204 231 228 196 197 150 182 89 2 84 29 61 288 130 57 315 192 174 149 139 116 114 84 98 121 109 90 114 119 113 101 97 100 103 99 108 102 102 92 78 66 68 73 70 62 67 72 71 64 58 46 43 35 27 15 12 35 43 42 40 41 28 22 23 20 13 356 349 0 353 331 359 7 3 343 343
187 220 170 173 168 182 187 196 199 161 185 166 253 203 157 156 144 130 336 68 73 143 237 188 145 227 267 194 174 157 141 131 130 191 130 125 137 125 118 112 112 113 103 91 92 101 95 92 91 74 73 69 70 65 51 68 72 68 72 63 55 46 44 27 22 23 34 40 39 51 61 59 50 42 18 4 8 7 353 357 12 3 357 10 351 337
156 196 183 184 173 180 191 209 206 168 145 221 234 118 137 158 162 190 187 185 234 239 293 100 138 151 201 226 165 146 147 150 148 148 130 103 108 116 118 109 112 110 108 105 96 91 87 78 90 91 77 75 74 76 58 65 67 63 65 68 52 44 44 27 27 36 35 47 32 45 44 48 41 35 21 13 9 7 8 16 17 4 359 -0 14 351
161 189 181 193 189 191 210 190 136 160 164 214 131 132 158 176 185 190 195 218 222 205 280 196 104 98 211 183 137 149 146 174 148 146 124 124 143 129 123 114 114 112 110 112 98 88 91 89 84 94 87 74 71 66 62 58 75 68 59 76 58 45 39 35 42 44 35 42 39 45 41 40 35 24 21 13 18 18 7 14 9 12 4 2 0 357
208 190 189 179 181 211 161 149 166 166 174 254 121 120 147 160 162 170 191 198 262 144 245 185 168 122 241 340 181 190 168 194 123 134 135 143 141 139 131 118 113 106 104 96 95 90 91 91 89 83 94 81 62 72 67 49 63 62 57 69 65 53 45 41 44 46 43 40 36 43 40 37 27 21 17 24 27 26 15 15 7 5 8 4 1 356
222 177 168 181 206 186 151 183 155 174 179 179 112 87 38 127 271 37 102 140 54 253 239 169 188 127 214 216 198 179 194 166 150 157 144 140 130 128 127 118 116 113 105 103 99 92 95 97 91 85 85 86 73 71 66 60 63 78 74 70 63 48 42 39 37 34 42 41 37 41 48 44 36 24 23 23 22 14 17 11 2 2 355 1 359 349
278 226 181 216 153 154 145 180 173 165 162 119 139 126 106 298 24 50 325 73 182 255 259 186 176 156 192 209 226 177 142 160 157 158 151 141 135 128 124 117 119 116 108 105 107 107 107 102 90 94 88 89 96 70 59 55 57 59 70 75 67 46 41 38 35 36 31 37 37 38 38 41 36 35 35 34 25 15 16 6 358 350 352 1 348 353
249 245 269 160 172 153 160 153 207 164 150 142 100 122 150 249 113 254 105 229 208 208 286 187 143 100 232 220 228 153 165 154 140 151 148 141 132 126 115 113 117 120 117 116 110 108 100 98 112 104 115 133 90 73 49 45 48 61 68 69 69 51 33 38 37 46 37 38 34 37 41 38 34 38 39 34 29 15 12 2 -0 360 360 351 3 355
254 289 257 218 160 186 154 176 157 183 197 154 169 157 149 168 180 205 246 150 320 273 298 18 199 182 65 134 341 148 146 126 112 98 88 125 127 121 118 117 118 116 116 113 113 117 109 94 95 119 94 81 81 74 56 48 66 72 72 72 77 59 38 38 42 41 45 37 36 37 40 37 33 34 32 29 27 13 7 3 360 1 353 350 351 337
174 229 243 181 223 152 178 183 166 158 149 190 128 143 178 150 163 197 185 193 204 204 275 285 139 245 146 259 352 131 121 114 108 108 116 115 110 107 109 112 110 105 98 98 98 98 109 125 115 80 74 64 63 63 72 83 79 75 73 77 77 65 40 50 45 42 39 32 29 34 42 37 36 33 27 23 21 13 3 360 -0 1 357 356 346 343
207 225 258 189 214 168 185 156 148 123 134 191 149 95 116 222 128 157 199 149 166 135 59 355 118 1 41 345 21 111 108 113 116 115 120 118 116 115 110 112 106 101 103 102 106 114 118 104 87 81 71 64 62 73 85 84 84 84 85 80 75 70 52 47 47 31 32 25 24 26 29 19 18 12 12 7 9 8 12 16 19 15 10 3 359 356
131 226 297 166 211 175 180 150 181 154 190 210 129 198 209 111 116 77 69 146 99 71 273 61 110 64 110 54 66 120 112 120 123 128 128 126 125 119 114 120 118 114 120 121 123 125 116 99 83 83 82 73 73 73 73 74 84 97 91 81 71 60 51 49 43 35 24 24 22 14 15 12 12 13 13 11 17 18 24 28 25 20 12 8 11 5
158 233 282 129 204 236 196 175 173 188 143 130 188 205 74 96 134 176 216 11 53 156 208 38 202 166 160 192 173 132 127 138 138 140 138 132 132 130 131 129 126 128 131 121 112 102 100 106 108 96 82 76 74 81 79 77 71 78 87 92 85 63 54 34 35 28 25 23 28 26 27 25 27 27 32 37 36 32 32 27 21 16 17 11 8 9
124 184 237 199 178 202 159 152 207 207 162 184 186 163 153 181 230 302 113 211 139 157 209 261 194 225 208 188 154 157 149 154 149 143 142 139 139 134 131 127 123 128 121 119 118 111 110 106 98 91 83 77 75 69 71 65 67 67 64 66 69 63 48 44 38 40 35 34 38 36 32 29 25 27 33 40 43 40 37 28 21 18 10 8 10 8
71 176 295 231 183 183 147 140 208 214 256 38 119 168 171 142 188 122 200 172 110 174 131 218 166 241 198 182 185 171 162 157 148 151 149 137 131 133 132 132 134 135 132 130 122 113 102 89 90 95 95 88 73 69 57 62 61 59 53 60 63 57 53 47 43 41 43 35 41 37 36 30 30 30 31 34 39 38 35 30 24 18 15 12 7 9
258 131 212 287 244 143 204 191 208 175 174 154 157 178 196 159 228 110 60 120 156 160 174 144 210 229 193 170 187 176 167 160 154 147 142 133 135 139 139 136 137 132 136 130 113 105 103 104 101 95 95 92 85 73 60 56 64 67 72 73 67 65 57 54 44 46 45 44 40 43 36 28 26 24 23 27 29 34 18 28 31 28 22 14 17 6
102 113 193 316 146 203 219 240 143 161 171 174 165 191 174 120 128 165 237 32 86 113 174 144 234 263 269 214 180 162 157 149 144 140 131 134 137 139 131 133 140 132 117 105 103 107 107 107 105 101 92 81 70 60 57 59 70 72 75 76 74 67 58 61 49 48 46 45 45 45 35 30 28 25 23 25 20 31 17 13 24 27 26 23 13 10
151 162 113 231 202 217 218 223 195 174 174 169 172 212 171 144 118 120 186 223 57 38 105 144 116 291 272 343 140 148 140 141 133 126 126 131 133 131 129 127 107 109 114 112 110 106 106 101 89 82 77 70 69 71 73 68 71 74 76 73 69 72 60 58 57 53 51 49 44 40 39 37 33 28 26 23 15 23 21 16 17 18 24 28 16 11
139 118 159 292 304 299 312 324 3 182 133 104 262 88 134 170 180 168 169 181 129 156 76 13 113 249 270 129 126 127 131 129 126 128 128 133 134 136 130 118 118 113 113 110 104 97 88 77 77 78 75 71 68 75 76 77 74 70 66 70 70 67 60 53 49 48 49 44 41 37 42 41 32 31 23 23 11 11 8 14 15 14 23 33 24 15
145 277 117 359 25 343 353 16 47 323 337 146 175 206 166 125 105 150 113 84 117 209 167 137 213 221 171 134 128 131 134 134 136 140 137 138 142 137 126 123 121 122 119 111 106 106 96 88 84 83 83 80 82 79 80 77 74 71 66 60 67 65 53 53 42 48 43 44 40 35 46 48 43 36 30 28 21 19 13 15 16 13 15 28 33 20
167 189 130 197 162 161 186 183 219 193 203 235 156 149 161 130 133 111 148 119 148 225 133 159 172 271 134 138 137 140 138 135 142 144 146 141 144 134 129 129 126 121 118 117 114 104 99 97 91 84 82 86 85 89 86 82 78 75 71 61 60 60 50 40 39 41 44 36 40 34 38 45 49 44 36 36 32 28 25 23 23 19 18 22 31 20
161 134 135 166 163 186 200 212 241 122 78 162 195 147 202 137 140 104 114 113 186 194 169 240 158 145 151 152 152 154 150 150 151 153 151 144 137 134 134 129 125 124 125 120 115 113 106 94 89 87 84 89 94 93 92 91 84 80 76 65 51 50 50 37 39 36 38 34 36 33 27 28 32 42 46 41 38 33 30 30 26 26 24 24 29 24
105 176 181 122 136 222 202 202 346 227 162 205 153 185 190 167 149 124 127 210 168 107 240 59 165 138 170 158 156 154 151 148 151 149 146 142 136 137 130 124 122 118 118 116 115 112 107 105 99 92 93 95 96 97 92 85 85 82 77 69 52 45 47 39 48 42 39 36 38 33 25 22 20 22 30 44 43 38 32 31 31 31 31 28 28 27
143 171 210 115 36 10 18 337 14 31 77 110 48 116 177 167 147 166 192 165 142 155 200 169 177 159 172 175 167 163 156 150 148 148 141 135 130 130 132 131 131 130 130 120 118 116 115 111 107 100 98 101 101 98 95 90 82 77 69 62 57 51 41 42 50 46 42 39 38 29 27 26 24 25 24 23 28 27 26 28 28 33 35 34 30 25
116 194 173 140 124 26 11 14 11 106 108 42 30 8 349 171 185 155 114 145 137 157 166 154 174 169 164 163 156 151 144 139 140 138 138 141 141 139 138 138 136 135 130 123 120 114 111 109 105 102 102 102 103 102 100 94 91 83 82 73 62 57 40 52 50 50 43 41 33 31 31 33 33 32 31 29 26 23 16 8 16 26 32 35 30 25
129 247 164 113 68 359 339 10 44 1 160 85 22 30 30 30 62 38 105 108 89 66 106 129 134 127 19 123 125 130 135 135 139 148 148 145 144 145 141 141 139 134 131 124 120 117 112 109 104 103 102 102 102 103 101 99 95 87 81 78 70 62 51 60 61 54 50 44 35 37 36 37 35 34 34 27 28 24 20 13 9 10 13 21 26 22
91 168 44 83 80 326 335 25 40 26 64 95 45 18 17 13 88 132 131 204 124 137 128 122 122 147 157 129 126 135 145 150 151 150 150 151 150 146 145 143 142 140 135 130 125 123 118 114 112 111 111 110 106 103 105 104 97 94 92 85 76 64 58 63 61 58 49 43 41 40 42 41 39 39 32 30 25 20 17 16 15 15 10 7 12 16
138 131 125 99 88 285 283 17 53 14 344 46 354 316 313 277 245 308 324 29 154 138 130 150 204 171 152 146 142 155 156 155 152 155 150 150 154 150 147 145 142 141 138 134 129 123 120 116 115 115 113 115 118 122 133 122 109 104 105 89 74 65 59 57 56 56 52 44 47 45 45 43 44 40 35 28 22 19 20 18 17 16 13 12 5 4
139 134 139 31 127 211 292 24 49 45 323 227 253 237 203 227 169 117 90 119 128 99 178 201 140 133 142 150 156 163 165 168 161 158 155 153 151 145 141 142 141 137 133 128 126 124 121 121 122 126 133 136 135 130 134 126 118 120 103 91 73 70 61 66 55 59 58 55 51 50 46 46 46 43 36 27 25 23 23 22 20 16 13 12 9 10
119 102 109 129 107 186 256 66 99 176 231 265 338 280 212 162 106 94 63 31 358 84 109 118 136 151 159 154 149 144 132 125 137 146 154 150 146 147 147 143 142 142 138 136 133 133 132 130 129 129 126 125 125 127 116 108 114 109 91 84 79 72 76 71 75 67 68 68 59 54 49 48 45 46 35 29 26 27 29 25 22 20 12 13 8 6
134 115 150 51 97 63 56 84 174 234 261 357 345 8 129 107 117 97 37 7 1 5 131 130 140 139 138 136 134 129 118 103 76 54 116 131 139 139 137 139 138 137 137 140 134 133 133 136 137 134 131 130 120 124 123 130 123 100 91 83 89 82 81 85 83 81 77 72 62 57 50 55 53 47 38 34 31 34 28 25 21 15 0 6 2 1
126 114 113 89 353 137 148 80 180 343 328 280 190 208 185 161 174 156 159 241 333 304 151 137 137 135 129 128 127 125 122 102 85 53 78 120 120 117 122 126 133 133 133 134 135 137 137 135 130 130 126 127 127 125 130 131 108 105 98 93 92 92 95 93 93 90 83 81 74 66 55 56 60 54 46 36 41 33 25 20 10 7 359 7 4 3
332 132 219 112 276 123 136 88 37 27 257 256 229 223 183 165 138 161 103 291 280 284 181 144 147 141 134 132 135 136 128 119 131 153 156 133 128 127 126 128 133 137 136 135 128 124 122 122 119 126 126 126 125 131 132 122 114 109 106 109 113 106 104 101 102 103 95 90 85 70 60 54 57 58 46 45 41 28 20 12 8 8 353 13 -0 7
43 76 90 114 146 96 83 135 189 168 238 204 208 201 179 160 140 153 72 247 223 187 178 150 144 150 149 148 147 146 147 161 172 162 166 145 139 137 137 139 139 138 135 133 136 130 128 132 134 132 120 122 125 140 128 123 116 111 119 130 128 118 109 112 114 107 106 99 89 78 70 62 58 56 52 48 30 27 23 6 6 342 357 9 10 5
51 16 53 66 104 147 142 116 194 198 235 272 197 157 167 136 111 63 95 265 180 179 168 159 154 155 157 155 156 161 166 168 176 172 157 147 142 143 140 139 138 138 134 130 130 131 130 128 120 122 126 135 149 145 129 122 116 123 132 146 135 115 122 124 122 124 108 104 94 90 68 60 72 59 60 47 33 25 21 359 12 8 8 8 13 5
5 6 51 151 149 122 110 263 341 305 281 259 165 138 143 133 91 150 199 250 174 166 164 164 160 157 154 158 168 172 200 34 114 136 145 140 133 135 136 137 136 136 132 127 134 129 128 136 138 143 149 150 147 140 131 119 117 133 146 140 122 138 153 150 131 113 113 111 104 98 93 76 86 77 50 48 49 28 28 19 19 11 18 11 3 8
23 85 60 86 100 150 189 129 211 237 238 149 49 146 171 109 199 206 229 226 150 165 154 160 160 164 163 162 151 82 114 120 128 131 138 141 137 137 138 136 131 124 122 129 132 126 131 138 142 140 132 143 147 143 128 124 128 146 142 123 142 176 177 152 136 120 114 110 115 112 92 91 66 65 64 44 43 43 24 3 17 23 15 5 6 5
198 117 183 150 161 65 49 69 24 212 244 134 124 56 318 141 233 199 111 120 162 154 151 155 160 160 157 128 111 128 124 129 136 139 138 138 136 139 141 138 134 133 132 130 130 134 135 138 141 141 149 161 150 139 133 126 134 143 136 137 183 188 162 154 130 119 116 117 107 100 76 46 47 33 33 28 31 49 24 356 9 7 12 9 5 8
204 89 247 271 186 142 140 154 197 218 209 175 151 180 190 192 167 143 132 120 138 150 150 148 154 157 143 129 134 131 134 131 134 138 136 138 139 139 141 138 132 128 134 141 140 140 131 131 133 140 156 161 153 142 141 130 135 140 139 172 201 160 142 131 132 123 117 112 108 94 78 55 32 29 21 19 9 36 30 9 354 2 16 5 16 8
212 159 179 169 203 131 191 215 251 281 245 287 56 225 127 135 157 165 139 150 146 160 151 148 153 143 136 136 134 136 137 144 143 146 143 146 145 147 146 140 139 140 142 141 137 132 127 134 141 145 154 164 154 149 143 137 136 142 153 193 148 164 133 134 131 124 119 126 127 114 120 65 35 15 9 4 37 33 8 359 9 6 357 12 10 9
323 161 160 88 210 217 230 224 266 357 354 11 42 50 112 120 106 122 136 138 172 153 159 156 147 139 141 142 134 138 139 144 138 140 138 140 141 140 133 128 129 137 139 127 129 130 130 133 136 141 150 166 157 149 149 145 136 143 180 175 168 177 141 135 130 127 140 146 144 149 149 102 29 5 354 347 0 43 56 14 358 2 348 8 3 3
270 150 61 102 189 84 265 330 24 339 356 50 92 59 53 63 96 135 145 143 141 141 132 134 137 141 143 143 138 138 139 143 137 135 134 130 127 125 124 128 135 145 138 136 144 131 128 131 133 142 149 159 176 148 143 132 141 156 163 156 156 152 124 110 121 132 145 167 189 207 166 134 144 334 342 349 340 354 9 0 13 1 349 352 355 349
261 151 72 80 90 123 225 302 338 0 50 24 55 121 114 104 92 69 97 115 120 118 125 132 132 134 141 139 141 138 139 143 140 140 138 138 140 142 144 152 153 146 139 141 150 134 129 130 137 144 148 154 163 136 137 136 134 137 130 132 130 119 103 100 120 145 168 187 200 210 205 191 237 241 320 313 353 346 343 340 354 351 321 318 322 339
185 90 178 167 104 87 44 49 114 75 33 26 45 50 96 125 118 114 117 120 122 124 128 131 137 142 141 141 142 139 139 148 145 142 141 144 146 149 151 152 147 136 134 140 146 135 135 136 139 146 140 146 154 138 125 124 132 146 140 141 131 115 103 106 107 111 121 169 194 230 247 256 268 276 294 324 328 304 249 260 292 298 307 268 197 191
75 105 165 94 98 196 195 190 173 128 221 204 72 134 124 121 120 122 123 125 133 134 137 136 138 141 141 145 147 145 143 145 147 142 143 148 151 148 146 143 139 138 144 142 132 128 131 138 139 139 138 150 157 139 131 138 151 170 148 134 130 115 113 116 101 94 98 122 145 227 250 261 270 279 300 333 341 344 329 277 248 228 231 293 280 228
148 192 148 169 171 220 221 171 163 91 84 120 156 145 131 136 131 135 141 139 137 138 139 138 139 137 140 144 147 144 142 144 145 140 141 143 144 143 143 142 142 141 137 132 124 130 136 140 134 130 131 148 149 138 139 145 158 154 165 148 136 121 128 125 114 116 130 87 81 90 232 255 269 276 309 326 336 345 343 333 341 291 216 239 276 291